Home   Weather   Dülmen   Past weeks

Flag for Germany Past Weather in Dülmen, North Rhine-Westphalia, Germany — Yesterday and Last 2 Weeks

Now
68 °F

Passing clouds.


Feels Like: 68 °F
Forecast: 54 / 69 °F
Wind: 5 mph from Northeast

Location: Dortmund / Wickede

Current Time: Sep 27, 2016 at 2:18:35 PM

Latest Report: Sep 27, 2016 at 1:50 PM


Visibility: N/A

Pressure: 30.30 "Hg

Humidity: 40%

Dew Point: 43 °F

Location of DülmenLocation

Past Weather in Dülmen — Graph

°F

Dülmen Temperature Yesterday

Maximum temperature yesterday: 70 °F (at 3:50 PM)
Minimum temperature yesterday: 52 °F (at 7:20 AM)
Average temperature yesterday: 60 °F

High & Low Weather Summary for the Past Weeks

 TemperatureHumidityPressure
High90 °F (Sep 13, 3:20 PM)88% (Sep 16, 6:20 AM)30.30 "Hg (Sep 16, 6:20 AM)
Low45 °F (Sep 21, 6:20 AM)23% (Sep 15, 2:50 PM)29.80 "Hg (Sep 15, 3:50 PM)
Average65 °F57%30.07 "Hg
* Reported Sep 12 12:20 PM — Sep 27 12:50 PM, Dülmen, Weather by CustomWeather, © 2016

Note: Actual official high and low records may vary slightly from our data, if they occured in-between our weather recording intervals... More about our weather records

Advertising

Dülmen Weather History for the Previous 24 Hours

Scroll right to see more
 ConditionsComfort  
Time TempWeatherWind HumidityBarometerVisibility
12:50 PM
Tue, Sep 27
66 °FPassing clouds.5 mph46%30.30 "HgN/A
12:20 PM66 °FSunny.3 mph49%30.30 "Hg10 mi
11:50 AM64 °FSunny.3 mph56%30.30 "Hg10 mi
11:20 AM64 °FSunny.2 mph56%30.30 "Hg10 mi
10:50 AM64 °FSunny.2 mph56%30.30 "Hg10 mi
10:20 AM59 °FSunny.3 mph63%30.27 "Hg10 mi
9:50 AM57 °FPassing clouds.6 mph67%30.30 "HgN/A
9:20 AM55 °FSunny.6 mph72%30.27 "Hg10 mi
8:50 AM54 °FSunny.5 mph77%30.27 "Hg10 mi
8:20 AM50 °FSunny.5 mph82%30.27 "Hg10 mi
7:50 AM48 °FSunny.6 mph82%30.27 "Hg10 mi
7:20 AM48 °FClear.6 mph87%30.27 "Hg10 mi
6:50 AM50 °FClear.6 mph82%30.27 "Hg10 mi
6:20 AM50 °FClear.3 mph82%30.24 "Hg10 mi
5:50 AM52 °FClear.5 mph77%30.24 "Hg10 mi
5:20 AM50 °FClear.3 mph82%30.24 "Hg10 mi
9:50 PM
Mon, Sep 26
57 °FClear.2 mph59%30.24 "Hg10 mi
9:20 PM59 °FClear.3 mph59%30.24 "Hg10 mi
8:50 PM59 °FClear.7 mph55%30.21 "Hg10 mi
8:20 PM59 °FClear.5 mph59%30.21 "Hg10 mi
7:50 PM59 °FClear.2 mph59%30.21 "Hg10 mi
7:20 PM61 °FClear.No wind52%30.21 "Hg10 mi
6:50 PM61 °FSunny.2 mph52%30.18 "Hg10 mi
6:20 PM64 °FSunny.3 mph46%30.18 "Hg10 mi
5:50 PM66 °FScattered clouds.5 mph43%30.18 "HgN/A
5:20 PM68 °FSunny.3 mph38%30.18 "Hg10 mi
4:50 PM68 °FScattered clouds.6 mph38%30.18 "HgN/A
4:20 PM68 °FScattered clouds.7 mph35%30.18 "HgN/A
3:50 PM70 °FPassing clouds.6 mph35%30.18 "HgN/A
3:20 PM68 °FPassing clouds.6 mph38%30.21 "HgN/A
2:50 PM66 °FPassing clouds.5 mph37%30.21 "HgN/A
2:20 PM66 °FSunny.5 mph43%30.21 "Hg10 mi
Weather by CustomWeather, © 2016

See weather overviewHow to use our weather pages